GW1675 Weather Reports


time (UTC)temp
F
wind
direction
speed
knots
gust
knots
rain 1hr
in
rain 24hr
in
rain mn
in
humidity
%
barometer
mb
20260831164558 87 156 4.3 8.7 0.00 0.00 0.00 68 1017.4
20260831163055 88 158 4.3 10.4 0.00 0.00 0.00 69 1017.4
20260831161553 88 158 4.3 8.7 0.00 0.00 0.00 69 1017.4
20260831160059 87 158 7.8 11.3 0.00 0.00 0.00 69 1017.6
20260831154616 87 153 5.2 11.3 0.00 0.00 0.00 69 1017.7
20260831153108 87 148 5.2 11.3 0.00 0.00 0.00 69 1017.9
20260831151549 86 139 7.8 13.0 0.00 0.00 0.00 69 1018.1
20260831144559 85 110 5.2 11.3 0.00 0.00 0.00 69 1018.3
20260831143103 85 104 5.2 10.4 0.00 0.00 0.00 69 1018.4
20260831141558 85 103 5.2 9.6 0.00 0.00 0.00 69 1018.4
20260831140054 84 102 4.3 9.6 0.00 0.00 0.00 69 1018.5
20260831134611 83 102 6.1 9.6 0.00 0.00 0.00 69 1018.5
20260831133103 83 102 3.5 9.6 0.00 0.00 0.00 69 1018.7
20260831131558 82 101 4.3 10.4 0.00 0.00 0.00 69 1018.9
20260831130101 81 101 6.1 10.4 0.00 0.00 0.00 69 1019.2
20260831124556 80 98 6.1 12.2 0.00 0.00 0.00 68 1019.2
20260831123055 80 91 6.1 11.3 0.00 0.00 0.00 69 1019.3
20260831121617 80 89 5.2 11.3 0.00 0.00 0.00 69 1019.4
20260831114556 79 87 4.3 9.6 0.00 0.00 0.00 68 1019.5
20260831113105 78 86 4.3 8.7 0.00 0.00 0.00 68 1019.7
20260831111550 78 86 4.3 10.4 0.00 0.00 0.00 68 1019.9
20260831110100 77 86 6.1 8.7 0.00 0.00 0.00 68 1020.1
20260831104559 77 86 6.1 10.4 0.00 0.00 0.00 68 1020.2
20260831103055 78 84 4.3 9.6 0.00 0.00 0.00 69 1020.2
20260831101604 77 84 6.1 11.3 0.00 0.00 0.00 69 1020.1
20260831094605 79 82 5.2 8.7 0.00 0.00 0.00 69 1020.0
20260831093139 81 82 4.3 7.8 0.00 0.00 0.00 69 1019.6
20260831091559 80 82 5.2 7.8 0.00 0.00 0.00 69 1019.6
20260831090101 79 82 4.3 7.8 0.00 0.00 0.00 69 1019.5
20260831084639 78 82 2.6 7.0 0.00 0.00 0.00 69 1019.4
20260831083051 76 82 5.2 10.4 0.00 0.00 0.00 69 1019.3
20260831081602 75 82 7.0 12.2 0.00 0.00 0.00 69 1019.3
20260831080121 75 82 5.2 9.6 0.00 0.00 0.00 69 1019.3
20260831074557 74 82 3.5 9.6 0.00 0.00 0.00 68 1019.2
20260831073101 74 82 2.6 4.3 0.00 0.00 0.00 68 1019.2
20260831071601 73 82 0.0 4.3 0.00 0.00 0.00 68 1019.1
20260831070059 72 82 3.5 12.2 0.00 0.00 0.00 68 1019.0
20260831064557 72 82 6.1 13.9 0.00 0.00 0.00 68 1018.9
20260831063110 72 82 6.1 12.2 0.00 0.00 0.00 68 1018.6
20260831061557 71 82 7.8 11.3 0.00 0.00 0.00 68 1018.5
20260831060123 71 82 6.1 13.0 0.00 0.00 0.00 68 1018.5
20260831054555 71 82 6.1 13.0 0.00 0.00 0.00 68 1018.6
20260831053058 71 81 7.0 12.2 0.00 0.00 0.00 68 1018.7
20260831051555 71 82 7.8 12.2 0.00 0.00 0.00 68 1018.7
20260831050051 72 82 6.1 13.0 0.00 0.00 0.00 68 1018.6
20260831044600 72 81 6.1 13.0 0.00 0.00 0.00 68 1018.6
20260831043058 72 81 6.1 12.2 0.00 0.00 0.00 68 1018.7
20260831041551 73 81 6.1 9.6 0.00 0.00 0.00 68 1018.7
20260831040057 73 81 5.2 10.4 0.00 0.00 0.00 68 1018.8
20260831034610 73 81 5.2 10.4 0.00 0.00 0.00 69 1018.8
20260831033100 74 81 9.6 13.9 0.00 0.00 0.00 69 1018.8
20260831031600 74 80 6.1 10.4 0.00 0.00 0.00 69 1018.8
20260831030100 74 80 6.1 13.0 0.00 0.00 0.00 69 1018.9
20260831024601 74 80 7.0 13.9 0.00 0.00 0.00 69 1019.0
20260831023053 75 80 7.8 13.0 0.00 0.00 0.00 69 1019.2
20260831021601 75 80 8.7 14.8 0.00 0.00 0.00 69 1019.1
20260831014558 76 78 7.0 18.2 0.00 0.00 0.00 69 1019.1
20260831013050 76 80 7.8 13.9 0.00 0.00 0.00 69 1019.2
20260831011604 76 80 7.0 13.9 0.00 0.00 0.00 69 1019.2
20260831010107 76 79 8.7 14.8 0.00 0.00 0.00 69 1019.2
20260831004600 77 79 7.0 13.9 0.00 0.00 0.00 69 1019.2
20260831003051 77 78 6.1 13.0 0.00 0.00 0.00 69 1019.2
20260831001620 78 77 7.8 13.9 0.00 0.00 0.00 69 1019.2
20260831000059 78 77 8.7 13.9 0.00 0.00 0.00 69 1019.0
20260830234608 78 77 8.7 13.9 0.00 0.00 0.00 70 1019.1
20260830233118 79 75 7.8 17.4 0.00 0.00 0.00 70 1019.0
20260830231600 79 74 7.0 15.6 0.00 0.00 0.00 70 1019.0
20260830230109 79 72 7.8 16.5 0.00 0.00 0.00 70 1018.8
20260830224606 79 72 9.6 15.6 0.00 0.00 0.00 70 1018.8
20260830223100 80 72 8.7 18.2 0.00 0.00 0.00 70 1018.6
20260830221556 80 72 8.7 14.8 0.00 0.00 0.00 70 1018.8
20260830220107 81 72 10.4 17.4 0.00 0.00 0.00 70 1018.8
20260830214600 81 72 9.6 15.6 0.00 0.00 0.00 70 1018.7
20260830213051 82 72 7.8 14.8 0.00 0.00 0.00 70 1018.7
20260830211559 82 153 5.2 11.3 0.00 0.00 0.00 70 1018.5
20260830210105 82 165 4.3 8.7 0.00 0.00 0.00 70 1018.5
20260830204559 83 168 4.3 7.8 0.00 0.00 0.00 71 1018.3
20260830203051 85 169 4.3 12.2 0.00 0.00 0.00 71 1018.2
20260830201549 85 168 3.5 6.1 0.00 0.00 0.00 71 1018.0
20260830200057 84 168 2.6 4.3 0.00 0.00 0.00 71 1017.8
20260830194601 82 168 0.9 2.6 0.00 0.00 0.00 70 1017.5
20260830193050 82 168 0.9 3.5 0.00 0.00 0.00 71 1017.4
20260830191607 83 168 1.7 3.5 0.00 0.00 0.00 71 1017.5
20260830190100 84 168 2.6 5.2 0.00 0.00 0.00 71 1017.4
20260830184551 85 168 1.7 4.3 0.00 0.00 0.00 71 1017.3
20260830183106 86 168 2.6 8.7 0.00 0.00 0.00 71 1017.4
20260830181559 86 168 4.3 9.6 0.00 0.00 0.00 71 1017.3
20260830180058 87 168 2.6 9.6 0.00 0.00 0.00 72 1017.4
20260830174615 86 168 6.1 12.2 0.00 0.00 0.00 72 1017.5
20260830173056 87 168 5.2 9.6 0.00 0.00 0.00 72 1017.5
20260830171607 87 168 4.3 12.2 0.00 0.00 0.00 72 1017.6
20260830170100 87 167 5.2 11.3 0.00 0.00 0.00 72 1017.6